Weather History for Cody, WY

Change the Weather History Date:

Sunday, January 27, 2013

  Actual Average Record
Temperature  
Mean Temperature 30 °F -  
Max Temperature 35 °F 35 °F 63 °F (1934)
Min Temperature 24 °F 13 °F -31 °F (1916)
Degree Days  
Heating Degree Days 36    
Moisture  
Dew Point 26 °F    
Average Humidity 83    
Maximum Humidity 100    
Minimum Humidity 70    
Precipitation  
Precipitation 0.00 in - - ()
Sea Level Pressure  
Sea Level Pressure 29.71 in    
Wind  
Wind Speed 7 mph (North)    
Max Wind Speed 18 mph    
Max Gust Speed 24 mph    
Visibility 8 miles    
Events      
Averages and records for this station are not official NWS values.
T = Trace of Precipitation, MM = Missing Value Source: NWS Daily Summary

Daily Weather History Graph

Daily Weather History Graph

Search for Another Location

Airport:

Trip Planner

Search our weather history database for the weather conditions in past years. The results will help you decide how hot, cold, wet, or windy it might be!

Date:

Astronomy

Jan. 27, 2013 Rise Set
Actual Time 7:39 AM MST 5:18 PM MST
Civil Twilight 7:08 AM MST 5:50 PM MST
Nautical Twilight 6:33 AM MST 6:25 PM MST
Astronomical Twilight 5:58 AM MST 6:59 PM MST
Moon 6:20 PM MST (1/27) 7:30 AM MST (1/27)
Length of Visible Light 10h 41m
Length of Day
9h 39m
Full, 100% of the Moon is Illuminated
Jan 27
Full
Feb 3
Last Quarter
Feb 10
New
Feb 17
First Quarter
Feb 25
Full

Hourly Weather History & Observations

Time (MST) Temp. Windchill Dew Point Humidity Pressure Visibility Wind Dir Wind Speed Gust Speed Precip Events Conditions
12:15 AM 30.2 °F - 24.8 °F 80% 29.69 in 10.0 mi Calm Calm - N/A   Clear
12:35 AM 30.2 °F - 24.8 °F 80% 29.68 in 10.0 mi Calm Calm - N/A   Clear
12:55 AM 30.2 °F - 24.8 °F 80% 29.68 in 10.0 mi Calm Calm - N/A   Scattered Clouds
1:15 AM 30.2 °F - 24.8 °F 80% 29.68 in 10.0 mi Calm Calm - N/A   Scattered Clouds
1:35 AM 28.4 °F 24.6 °F 24.8 °F 86% 29.67 in 10.0 mi SE 3.5 mph - N/A   Mostly Cloudy
1:55 AM 30.2 °F 22.6 °F 24.8 °F 80% 29.67 in 10.0 mi SSE 8.1 mph - N/A   Mostly Cloudy
2:15 AM 32.0 °F - 26.6 °F 80% 29.67 in 10.0 mi Calm Calm - N/A   Partly Cloudy
2:35 AM 30.2 °F - 24.8 °F 80% 29.66 in 10.0 mi Calm Calm - N/A   Partly Cloudy
2:55 AM 30.2 °F - 24.8 °F 80% 29.67 in 10.0 mi Calm Calm - N/A   Clear
3:15 AM 33.8 °F 29.6 °F 26.6 °F 75% 29.66 in 10.0 mi South 4.6 mph - N/A   Partly Cloudy
3:35 AM 33.8 °F 28.6 °F 26.6 °F 75% 29.66 in 10.0 mi SSW 5.8 mph - N/A   Mostly Cloudy
3:55 AM 33.8 °F 29.6 °F 26.6 °F 75% 29.66 in 10.0 mi ENE 4.6 mph - N/A   Overcast
4:15 AM 35.6 °F 27.1 °F 26.6 °F 70% 29.67 in 10.0 mi NE 12.7 mph - N/A   Overcast
4:35 AM 33.8 °F 25.8 °F 26.6 °F 75% 29.68 in 10.0 mi NNE 10.4 mph - N/A   Overcast
4:55 AM 33.8 °F 26.4 °F 24.8 °F 70% 29.69 in 10.0 mi NE 9.2 mph - N/A   Overcast
5:15 AM 33.8 °F 26.4 °F 28.4 °F 81% 29.69 in 10.0 mi North 9.2 mph - N/A   Overcast
5:35 AM 33.8 °F 27.0 °F 26.6 °F 75% 29.69 in 10.0 mi NNE 8.1 mph - N/A   Overcast
5:55 AM 33.8 °F 27.0 °F 26.6 °F 75% 29.69 in 10.0 mi NE 8.1 mph - N/A   Overcast
6:15 AM 33.8 °F 27.0 °F 28.4 °F 81% 29.70 in 10.0 mi North 8.1 mph - N/A   Overcast
6:35 AM 33.8 °F 27.0 °F 28.4 °F 81% 29.70 in 10.0 mi NNE 8.1 mph - N/A   Overcast
6:55 AM 33.8 °F 26.4 °F 26.6 °F 75% 29.70 in 10.0 mi North 9.2 mph - N/A   Overcast
7:15 AM 33.8 °F 26.4 °F 26.6 °F 75% 29.70 in 10.0 mi NNE 9.2 mph - N/A   Overcast
7:35 AM 33.8 °F 27.0 °F 28.4 °F 81% 29.70 in 10.0 mi NE 8.1 mph - N/A   Overcast
7:55 AM 32.0 °F 24.8 °F 28.4 °F 87% 29.71 in 10.0 mi NNE 8.1 mph - N/A   Overcast
8:15 AM 32.0 °F 24.8 °F 28.4 °F 87% 29.72 in 10.0 mi NNE 8.1 mph - N/A   Overcast
8:35 AM 33.8 °F 29.6 °F 28.4 °F 81% 29.72 in 10.0 mi NNE 4.6 mph - N/A   Overcast
8:55 AM 33.8 °F 29.6 °F 28.4 °F 81% 29.72 in 10.0 mi NE 4.6 mph - N/A   Mostly Cloudy
9:15 AM 35.6 °F 27.1 °F 28.4 °F 75% 29.72 in 10.0 mi North 12.7 mph 18.4 mph N/A   Mostly Cloudy
9:35 AM 35.6 °F 26.6 °F 28.4 °F 75% 29.72 in 10.0 mi North 13.8 mph 19.6 mph N/A   Overcast
9:55 AM 35.6 °F 26.6 °F 26.6 °F 70% 29.72 in 10.0 mi North 13.8 mph 17.3 mph N/A   Overcast
10:15 AM 35.6 °F 26.2 °F 26.6 °F 70% 29.72 in 10.0 mi North 15.0 mph - N/A   Overcast
10:35 AM 33.8 °F 23.9 °F 26.6 °F 75% 29.73 in 10.0 mi North 15.0 mph 24.2 mph N/A   Overcast
10:55 AM 33.8 °F 22.8 °F 26.6 °F 75% 29.73 in 10.0 mi North 18.4 mph - N/A   Overcast
11:15 AM 33.8 °F 23.2 °F 26.6 °F 75% 29.73 in 10.0 mi North 17.3 mph 21.9 mph N/A   Overcast
11:35 AM 33.8 °F 23.5 °F 26.6 °F 75% 29.72 in 10.0 mi North 16.1 mph - N/A   Overcast
11:55 AM 33.8 °F 24.3 °F 26.6 °F 75% 29.72 in 10.0 mi North 13.8 mph 18.4 mph N/A   Overcast
12:15 PM 33.8 °F 23.5 °F 26.6 °F 75% 29.71 in 10.0 mi North 16.1 mph - N/A   Overcast
12:35 PM 32.0 °F 21.6 °F 28.4 °F 87% 29.71 in 10.0 mi North 15.0 mph - N/A   Overcast
1:15 PM 33.8 °F 23.9 °F 26.6 °F 75% 29.69 in 10.0 mi North 15.0 mph - N/A   Overcast
1:35 PM 33.8 °F 23.9 °F 28.4 °F 81% 29.68 in 10.0 mi North 15.0 mph - N/A   Overcast
1:55 PM 32.0 °F 22.1 °F 28.4 °F 87% 29.68 in 10.0 mi North 13.8 mph 19.6 mph N/A   Overcast
2:15 PM 30.2 °F 18.9 °F 28.4 °F 93% 29.68 in 7.0 mi North 16.1 mph 19.6 mph N/A   Overcast
2:35 PM 30.2 °F 19.3 °F 28.4 °F 93% 29.67 in 1.8 mi North 15.0 mph - N/A   Overcast
2:55 PM 28.4 °F 16.6 °F 28.4 °F 100% 29.67 in 2.0 mi NNE 16.1 mph 20.7 mph N/A   Overcast
4:15 PM 28.4 °F 19.1 °F 26.6 °F 93% 29.68 in 4.0 mi North 10.4 mph - N/A   Overcast
4:35 PM 28.4 °F 17.5 °F 26.6 °F 93% 29.68 in 2.0 mi North 13.8 mph 17.3 mph N/A   Overcast
4:55 PM 26.6 °F 16.2 °F 26.6 °F 100% 29.69 in 2.0 mi North 11.5 mph - N/A   Overcast
5:15 PM 26.6 °F 15.7 °F 24.8 °F 93% 29.70 in 3.0 mi North 12.7 mph 23.0 mph N/A   Overcast
5:35 PM 26.6 °F 17.5 °F 24.8 °F 93% 29.70 in 2.0 mi NNW 9.2 mph - N/A   Overcast
6:15 PM 26.6 °F 15.2 °F 24.8 °F 93% 29.70 in 3.0 mi North 13.8 mph - N/A   Overcast
6:35 PM 26.6 °F 14.7 °F 23.0 °F 86% 29.72 in 5.0 mi NNW 15.0 mph 18.4 mph N/A   Overcast
6:55 PM 26.6 °F 16.2 °F 23.0 °F 86% 29.72 in 6.0 mi NNW 11.5 mph - N/A   Overcast
7:15 PM 26.6 °F 16.2 °F 23.0 °F 86% 29.73 in 6.0 mi NNW 11.5 mph - N/A   Overcast
7:35 PM 26.6 °F 14.7 °F 23.0 °F 86% 29.73 in 5.0 mi North 15.0 mph - N/A   Overcast
7:55 PM 24.8 °F 13.4 °F 23.0 °F 93% 29.72 in 5.0 mi North 12.7 mph 19.6 mph N/A   Overcast
8:15 PM 24.8 °F 14.6 °F 23.0 °F 93% 29.74 in 3.0 mi North 10.4 mph - N/A   Overcast
8:35 PM 24.8 °F 12.4 °F 23.0 °F 93% 29.73 in 3.0 mi North 15.0 mph - N/A   Overcast
8:55 PM 24.8 °F 14.0 °F 23.0 °F 93% 29.74 in 4.0 mi North 11.5 mph - N/A   Overcast
9:15 PM 24.8 °F 16.1 °F 23.0 °F 93% 29.74 in 3.0 mi North 8.1 mph - N/A   Overcast
9:35 PM 24.8 °F 19.1 °F 23.0 °F 93% 29.75 in 4.0 mi NNW 4.6 mph - N/A   Overcast
9:55 PM 24.8 °F 17.9 °F 23.0 °F 93% 29.75 in 3.0 mi NNW 5.8 mph - N/A   Overcast
10:15 PM 24.8 °F 17.9 °F 23.0 °F 93% 29.75 in 5.0 mi NW 5.8 mph - N/A   Overcast
10:35 PM 24.8 °F 17.9 °F 21.2 °F 86% 29.74 in 5.0 mi NW 5.8 mph - N/A   Overcast
10:55 PM 24.8 °F 17.9 °F 21.2 °F 86% 29.76 in 8.0 mi NW 5.8 mph - N/A   Overcast
11:15 PM 24.8 °F 17.9 °F 21.2 °F 86% 29.76 in 10.0 mi NNW 5.8 mph - N/A   Overcast
11:35 PM 24.8 °F 16.9 °F 21.2 °F 86% 29.76 in 10.0 mi NNW 6.9 mph - N/A   Overcast
11:55 PM 24.8 °F 15.3 °F 19.4 °F 80% 29.76 in 5.0 mi NNW 9.2 mph - N/A   Overcast